Time,TemperatureF,DewpointF,PressureIn,WindDirection,WindDirectionDegrees,WindSpeedMPH,WindSpeedGustMPH,Humidity,HourlyPrecipIn,Conditions,Clouds,dailyrainin,SoftwareType,DateUTC
2013-04-05 00:00:00,58.5,55.5,29.93,WNW,292,3.5,4.9,90,0.00,OVC,,1.33,WeatherDisplay:10.37,2013-04-05 04:00:00,
2013-04-05 00:05:00,58.3,55.4,29.93,West,270,3.6,3.6,90,0.00,RA,,0.00,WeatherDisplay:10.37,2013-04-05 04:05:00,
2013-04-05 00:10:00,58.3,55.4,29.93,NW,315,3.5,5.9,90,0.00,RA,,0.00,WeatherDisplay:10.37,2013-04-05 04:10:00,
2013-04-05 00:15:00,58.1,55.2,29.93,West,270,6.7,6.7,90,0.00,OVC,,0.00,WeatherDisplay:10.37,2013-04-05 04:15:00,
2013-04-05 00:20:00,57.7,54.8,29.94,NW,315,4.6,4.6,90,0.00,OVC,,0.00,WeatherDisplay:10.37,2013-04-05 04:20:00,
2013-04-05 00:25:00,57.2,54.0,29.94,NW,315,4.6,4.6,89,0.00,OVC,,0.00,WeatherDisplay:10.37,2013-04-05 04:25:00,
2013-04-05 00:30:00,56.5,53.3,29.94,SW,225,4.5,4.5,89,0.00,OVC,,0.00,WeatherDisplay:10.37,2013-04-05 04:30:00,
2013-04-05 00:35:00,55.9,52.7,29.94,WSW,248,2.4,2.4,89,0.00,OVC,,0.00,WeatherDisplay:10.37,2013-04-05 04:35:00,
2013-04-05 00:40:00,55.6,52.4,29.94,WSW,248,4.3,4.3,89,0.00,OVC,,0.00,WeatherDisplay:10.37,2013-04-05 04:40:00,
2013-04-05 00:46:00,55.0,51.5,29.94,SW,225,4.6,4.6,88,0.00,OVC,,0.00,WeatherDisplay:10.37,2013-04-05 04:46:00,
2013-04-05 00:51:00,54.7,51.2,29.94,West,270,3.5,3.5,88,0.00,OVC,,0.00,WeatherDisplay:10.37,2013-04-05 04:51:00,
2013-04-05 00:57:00,54.3,50.8,29.95,NW,315,4.6,4.6,88,0.00,OVC,,0.00,WeatherDisplay:10.37,2013-04-05 04:57:00,
2013-04-05 01:02:00,54.1,50.7,29.95,NW,315,3.5,3.5,88,0.00,OVC,,0.00,WeatherDisplay:10.37,2013-04-05 05:02:00,
2013-04-05 01:07:00,54.0,50.5,29.95,SSW,202,4.6,4.6,88,0.00,OVC,,0.00,WeatherDisplay:10.37,2013-04-05 05:07:00,
2013-04-05 01:12:00,53.6,50.1,29.95,SW,225,4.7,4.7,88,0.00,OVC,,0.00,WeatherDisplay:10.37,2013-04-05 05:12:00,
2013-04-05 01:17:00,53.1,49.6,29.95,WSW,248,5.8,5.8,88,0.00,OVC,,0.00,WeatherDisplay:10.37,2013-04-05 05:17:00,
2013-04-05 01:22:00,52.7,49.2,29.95,SW,225,4.6,5.4,88,0.00,OVC,,0.00,WeatherDisplay:10.37,2013-04-05 05:22:00,
2013-04-05 01:27:00,52.3,48.9,29.95,West,270,5.9,5.9,88,0.00,OVC,,0.00,WeatherDisplay:10.37,2013-04-05 05:27:00,
2013-04-05 01:32:00,52.0,48.5,29.95,NW,315,5.8,5.8,88,0.00,OVC,,0.00,WeatherDisplay:10.37,2013-04-05 05:32:00,
2013-04-05 01:37:00,51.4,48.0,29.95,NW,315,6.0,6.0,88,0.00,OVC,,0.00,WeatherDisplay:10.37,2013-04-05 05:37:00,
2013-04-05 01:42:00,51.4,48.0,29.95,North,0,5.9,5.9,88,0.00,OVC,,0.00,WeatherDisplay:10.37,2013-04-05 05:42:00,
2013-04-05 01:47:00,51.1,47.6,29.95,West,270,5.8,5.8,88,0.00,OVC,,0.00,WeatherDisplay:10.37,2013-04-05 05:47:00,
2013-04-05 01:52:00,50.9,47.5,29.95,West,270,6.9,6.9,88,0.00,OVC,,0.00,WeatherDisplay:10.37,2013-04-05 05:52:00,
2013-04-05 01:57:00,50.7,47.0,29.95,North,0,5.8,5.8,87,0.00,OVC,,0.00,WeatherDisplay:10.37,2013-04-05 05:57:00,
2013-04-05 02:02:00,50.4,46.9,29.95,West,270,4.6,4.6,88,0.00,OVC,,0.00,WeatherDisplay:10.37,2013-04-05 06:02:00,
2013-04-05 02:07:00,50.2,46.8,29.95,NNW,338,5.8,5.8,88,0.00,OVC,,0.00,WeatherDisplay:10.37,2013-04-05 06:07:00,
2013-04-05 02:12:00,50.0,46.6,29.95,SW,225,6.9,6.9,88,0.00,OVC,,0.00,WeatherDisplay:10.37,2013-04-05 06:12:00,
2013-04-05 02:17:00,49.8,46.4,29.95,West,270,5.8,5.9,88,0.00,OVC,,0.00,WeatherDisplay:10.37,2013-04-05 06:17:00,
2013-04-05 02:22:00,49.6,46.2,29.95,West,270,6.9,6.9,88,0.00,OVC,,0.00,WeatherDisplay:10.37,2013-04-05 06:22:00,
2013-04-05 02:27:00,49.3,45.9,29.95,NW,315,8.1,8.1,88,0.00,OVC,,0.00,WeatherDisplay:10.37,2013-04-05 06:27:00,
2013-04-05 02:32:00,48.9,45.5,29.95,NNW,338,6.9,6.9,88,0.00,OVC,,0.00,WeatherDisplay:10.37,2013-04-05 06:32:00,
2013-04-05 02:37:00,48.7,45.3,29.95,West,270,5.8,5.8,88,0.00,OVC,,0.00,WeatherDisplay:10.37,2013-04-05 06:37:00,
2013-04-05 02:42:00,48.6,45.2,29.95,West,270,8.1,8.1,88,0.00,OVC,,0.00,WeatherDisplay:10.37,2013-04-05 06:42:00,
2013-04-05 02:47:00,48.4,45.0,29.95,ENE,68,8.1,8.1,88,0.00,OVC,,0.00,WeatherDisplay:10.37,2013-04-05 06:47:00,
2013-04-05 02:52:00,48.2,44.8,29.95,WNW,292,5.8,5.8,88,0.00,OVC,,0.00,WeatherDisplay:10.37,2013-04-05 06:52:00,
2013-04-05 02:58:00,48.2,44.8,29.96,SW,225,5.9,5.9,88,0.00,OVC,,0.00,WeatherDisplay:10.37,2013-04-05 06:58:00,
2013-04-05 03:03:00,47.8,44.5,29.96,NW,315,8.1,8.1,88,0.00,OVC,,0.00,WeatherDisplay:10.37,2013-04-05 07:03:00,
2013-04-05 03:08:00,47.7,44.3,29.96,WNW,292,6.9,6.9,88,0.00,OVC,,0.00,WeatherDisplay:10.37,2013-04-05 07:08:00,
2013-04-05 03:13:00,47.3,43.9,29.95,SSW,202,9.2,9.2,88,0.00,OVC,,0.00,WeatherDisplay:10.37,2013-04-05 07:13:00,
2013-04-05 03:18:00,46.9,43.6,29.95,West,270,9.2,9.2,88,0.00,OVC,,0.00,WeatherDisplay:10.37,2013-04-05 07:18:00,
2013-04-05 03:23:00,46.8,43.4,29.96,SW,225,9.2,9.2,88,0.00,OVC,,0.00,WeatherDisplay:10.37,2013-04-05 07:23:00,
2013-04-05 03:28:00,46.6,43.2,29.96,NW,315,10.4,10.4,88,0.00,OVC,,0.00,WeatherDisplay:10.37,2013-04-05 07:28:00,
2013-04-05 03:33:00,46.4,43.0,29.97,NW,315,5.8,5.8,88,0.00,OVC,,0.00,WeatherDisplay:10.37,2013-04-05 07:33:00,
2013-04-05 03:38:00,46.2,42.9,29.97,WNW,292,8.1,8.1,88,0.00,OVC,,0.00,WeatherDisplay:10.37,2013-04-05 07:38:00,
2013-04-05 03:43:00,46.0,42.7,29.97,WSW,248,6.9,6.9,88,0.00,OVC,,0.00,WeatherDisplay:10.37,2013-04-05 07:43:00,
2013-04-05 03:48:00,45.9,42.8,29.97,WSW,248,5.8,5.8,89,0.00,OVC,,0.00,WeatherDisplay:10.37,2013-04-05 07:48:00,
2013-04-05 03:53:00,45.9,42.8,29.97,North,0,8.1,8.1,89,0.00,OVC,,0.00,WeatherDisplay:10.37,2013-04-05 07:53:00,
2013-04-05 03:58:00,45.7,42.6,29.97,WNW,292,7.6,7.6,89,0.00,OVC,,0.00,WeatherDisplay:10.37,2013-04-05 07:58:00,
2013-04-05 04:03:00,45.5,42.4,29.97,WNW,292,6.2,6.2,89,0.00,OVC,,0.00,WeatherDisplay:10.37,2013-04-05 08:03:00,
2013-04-05 04:08:00,45.3,42.3,29.97,West,270,6.0,6.0,89,0.00,OVC,,0.00,WeatherDisplay:10.37,2013-04-05 08:08:00,
2013-04-05 04:13:00,45.3,42.3,29.97,WNW,292,8.1,8.1,89,0.00,OVC,,0.00,WeatherDisplay:10.37,2013-04-05 08:13:00,
2013-04-05 04:18:00,45.1,42.1,29.97,SW,225,8.1,8.1,89,0.00,OVC,,0.00,WeatherDisplay:10.37,2013-04-05 08:18:00,
2013-04-05 04:24:00,45.0,41.9,29.98,WSW,248,10.4,10.4,89,0.00,OVC,,0.00,WeatherDisplay:10.37,2013-04-05 08:24:00,
2013-04-05 04:29:00,45.0,42.2,29.98,NW,315,6.7,6.7,90,0.00,OVC,,0.00,WeatherDisplay:10.37,2013-04-05 08:29:00,
2013-04-05 04:34:00,44.8,42.0,29.98,NW,315,4.6,4.6,90,0.00,OVC,,0.00,WeatherDisplay:10.37,2013-04-05 08:34:00,
2013-04-05 04:39:00,44.6,41.8,29.98,NW,315,4.6,4.6,90,0.00,OVC,,0.00,WeatherDisplay:10.37,2013-04-05 08:39:00,
2013-04-05 04:44:00,44.8,42.0,29.98,West,270,4.6,4.6,90,0.00,OVC,,0.00,WeatherDisplay:10.37,2013-04-05 08:44:00,
2013-04-05 04:50:00,44.8,42.0,29.98,WNW,292,6.9,6.9,90,0.00,OVC,,0.00,WeatherDisplay:10.37,2013-04-05 08:50:00,
2013-04-05 04:55:00,44.6,41.8,29.98,NW,315,5.8,5.8,90,0.00,OVC,,0.00,WeatherDisplay:10.37,2013-04-05 08:55:00,
2013-04-05 05:00:00,44.6,41.8,29.99,NW,315,4.6,4.6,90,0.00,OVC,,0.00,WeatherDisplay:10.37,2013-04-05 09:00:00,
2013-04-05 05:05:00,44.6,41.8,29.99,NNW,338,8.1,8.1,90,0.00,OVC,,0.00,WeatherDisplay:10.37,2013-04-05 09:05:00,
2013-04-05 05:10:00,44.4,41.4,29.99,West,270,9.2,9.2,89,0.00,OVC,,0.00,WeatherDisplay:10.37,2013-04-05 09:10:00,
2013-04-05 05:15:00,44.4,41.4,29.99,West,270,4.9,4.9,89,0.00,OVC,,0.00,WeatherDisplay:10.37,2013-04-05 09:15:00,
2013-04-05 05:20:00,44.2,41.2,29.99,WSW,248,4.6,4.6,89,0.00,OVC,,0.00,WeatherDisplay:10.37,2013-04-05 09:20:00,
2013-04-05 05:25:00,44.2,41.2,29.99,NW,315,6.9,6.9,89,0.00,OVC,,0.00,WeatherDisplay:10.37,2013-04-05 09:25:00,
2013-04-05 05:30:00,44.2,41.2,30.00,WNW,292,5.8,5.8,89,0.00,OVC,,0.00,WeatherDisplay:10.37,2013-04-05 09:30:00,
2013-04-05 05:35:00,44.2,41.2,30.00,NNW,338,6.9,6.9,89,0.00,OVC,,0.00,WeatherDisplay:10.37,2013-04-05 09:35:00,
2013-04-05 05:40:00,44.2,41.2,29.99,SW,225,6.4,6.4,89,0.00,OVC,,0.00,WeatherDisplay:10.37,2013-04-05 09:40:00,
2013-04-05 05:45:00,44.2,41.2,29.99,WNW,286,8.0,10.0,89,0.00,OVC,OVC,0.00,WeatherDisplay:10.37,2013-04-05 09:45:00,
2013-04-05 05:50:00,44.1,41.0,30.00,WNW,299,5.0,10.0,89,0.00,OVC,OVC,0.00,WeatherDisplay:10.37,2013-04-05 09:50:00,
2013-04-05 05:55:00,44.1,41.0,30.00,WNW,299,5.0,6.0,89,0.00,OVC,OVC,0.00,WeatherDisplay:10.37,2013-04-05 09:55:00,
2013-04-05 06:00:00,44.1,41.0,29.99,NW,306,6.0,7.0,89,0.00,OVC,OVC,0.00,WeatherDisplay:10.37,2013-04-05 10:00:00,
2013-04-05 06:05:00,44.1,41.0,29.99,NW,310,5.0,7.0,89,0.00,OVC,OVC,0.00,WeatherDisplay:10.37,2013-04-05 10:05:00,
2013-04-05 06:10:00,43.9,40.8,30.00,WNW,292,10.4,10.4,89,0.00,OVC,,0.00,WeatherDisplay:10.37,2013-04-05 10:10:00,
2013-04-05 06:15:00,43.9,40.8,30.00,WNW,293,10.0,11.0,89,0.00,OVC,OVC,0.00,WeatherDisplay:10.37,2013-04-05 10:15:00,
2013-04-05 06:20:00,43.9,40.8,30.01,WNW,298,7.0,10.0,89,0.00,OVC,OVC,0.00,WeatherDisplay:10.37,2013-04-05 10:20:00,
2013-04-05 06:25:00,43.7,40.7,30.00,NW,318,6.0,10.0,89,0.00,OVC,OVC,0.00,WeatherDisplay:10.37,2013-04-05 10:25:00,
2013-04-05 06:30:00,43.7,40.7,30.00,NW,315,3.0,8.0,89,0.00,OVC,OVC,0.00,WeatherDisplay:10.37,2013-04-05 10:30:00,
2013-04-05 06:35:00,43.7,40.7,30.00,WNW,300,5.0,9.0,89,0.00,OVC,OVC,0.00,WeatherDisplay:10.37,2013-04-05 10:35:00,
2013-04-05 06:40:00,43.7,40.7,30.00,WNW,292,3.5,3.5,89,0.00,OVC,,0.00,WeatherDisplay:10.37,2013-04-05 10:40:00,
2013-04-05 06:45:00,43.7,40.7,30.01,NW,314,5.0,5.0,89,0.00,OVC,OVC,0.00,WeatherDisplay:10.37,2013-04-05 10:45:00,
2013-04-05 06:50:00,43.9,40.8,30.01,NW,324,2.0,5.0,89,0.00,OVC,OVC,0.00,WeatherDisplay:10.37,2013-04-05 10:50:00,
2013-04-05 06:55:00,43.9,40.8,30.02,NNW,331,5.0,5.0,89,0.00,OVC,OVC,0.00,WeatherDisplay:10.37,2013-04-05 10:55:00,
2013-04-05 07:00:00,43.7,40.7,30.02,WNW,292,6.9,6.9,89,0.00,OVC,,0.00,WeatherDisplay:10.37,2013-04-05 11:00:00,
2013-04-05 07:05:00,43.5,40.5,30.02,NNW,338,4.6,4.6,89,0.00,OVC,,0.00,WeatherDisplay:10.37,2013-04-05 11:05:00,
2013-04-05 07:10:00,43.5,40.5,30.03,NW,315,3.0,6.0,89,0.00,OVC,OVC,0.00,WeatherDisplay:10.37,2013-04-05 11:10:00,
2013-04-05 07:15:00,43.5,40.5,30.02,NNW,338,5.8,5.8,89,0.00,OVC,,0.00,WeatherDisplay:10.37,2013-04-05 11:15:00,
2013-04-05 07:20:00,43.5,40.5,30.01,NNW,342,3.0,6.0,89,0.00,OVC,OVC,0.00,WeatherDisplay:10.37,2013-04-05 11:20:00,
2013-04-05 07:25:00,43.5,40.5,30.02,NW,315,8.3,8.3,89,0.00,OVC,,0.00,WeatherDisplay:10.37,2013-04-05 11:25:00,
2013-04-05 07:30:00,43.5,40.5,30.02,NW,315,5.8,5.8,89,0.00,OVC,,0.00,WeatherDisplay:10.37,2013-04-05 11:30:00,
2013-04-05 07:35:00,43.5,40.5,30.03,North,0,6.9,6.9,89,0.00,OVC,,0.00,WeatherDisplay:10.37,2013-04-05 11:35:00,
2013-04-05 07:40:00,43.5,40.5,30.03,NNW,338,5.8,5.8,89,0.00,OVC,,0.00,WeatherDisplay:10.37,2013-04-05 11:40:00,
2013-04-05 07:45:00,43.5,40.5,30.04,North,0,5.8,5.8,89,0.00,OVC,,0.00,WeatherDisplay:10.37,2013-04-05 11:45:00,
2013-04-05 07:50:00,43.5,40.5,30.03,NW,315,4.6,4.6,89,0.00,OVC,,0.00,WeatherDisplay:10.37,2013-04-05 11:50:00,
2013-04-05 07:55:00,43.5,40.5,30.04,NNW,338,2.3,2.3,89,0.00,OVC,,0.00,WeatherDisplay:10.37,2013-04-05 11:55:00,
2013-04-05 08:00:00,43.5,40.5,30.05,West,270,2.4,2.4,89,0.00,OVC,,0.00,WeatherDisplay:10.37,2013-04-05 12:00:00,
2013-04-05 08:05:00,43.7,40.7,30.07,SSW,202,1.1,1.1,89,0.00,OVC,,0.00,WeatherDisplay:10.37,2013-04-05 12:05:00,
2013-04-05 08:10:00,43.9,40.8,30.07,SW,225,2.3,2.3,89,0.00,OVC,,0.00,WeatherDisplay:10.37,2013-04-05 12:10:00,
2013-04-05 08:15:00,44.2,41.2,30.06,NW,315,2.3,4.5,89,0.00,OVC,,0.00,WeatherDisplay:10.37,2013-04-05 12:15:00,
2013-04-05 08:20:00,44.4,41.4,30.06,North,0,2.4,2.4,89,0.00,OVC,,0.00,WeatherDisplay:10.37,2013-04-05 12:20:00,
2013-04-05 08:25:00,44.6,41.6,30.05,NW,315,6.2,6.2,89,0.00,OVC,,0.00,WeatherDisplay:10.37,2013-04-05 12:25:00,
2013-04-05 08:30:00,44.6,41.6,30.04,North,0,5.8,5.8,89,0.00,OVC,,0.00,WeatherDisplay:10.37,2013-04-05 12:30:00,
2013-04-05 08:35:00,44.4,41.4,30.02,North,0,9.2,9.2,89,0.00,OVC,,0.00,WeatherDisplay:10.37,2013-04-05 12:35:00,
2013-04-05 08:40:00,44.2,40.9,30.01,North,0,9.2,9.2,88,0.00,OVC,,0.00,WeatherDisplay:10.37,2013-04-05 12:40:00,
2013-04-05 08:45:00,44.2,40.9,30.02,West,270,2.3,2.3,88,0.00,OVC,,0.00,WeatherDisplay:10.37,2013-04-05 12:45:00,
2013-04-05 08:50:00,44.2,41.2,30.04,NNW,338,4.6,4.6,89,0.00,OVC,,0.00,WeatherDisplay:10.37,2013-04-05 12:50:00,
2013-04-05 08:55:00,44.4,41.1,30.03,NNW,338,6.7,6.7,88,0.00,OVC,,0.00,WeatherDisplay:10.37,2013-04-05 12:55:00,
2013-04-05 09:00:00,44.6,41.6,30.03,SE,135,8.1,8.1,89,0.00,OVC,,0.00,WeatherDisplay:10.37,2013-04-05 13:00:00,
2013-04-05 09:05:00,44.6,41.6,30.04,North,0,4.6,4.6,89,0.00,OVC,,0.00,WeatherDisplay:10.37,2013-04-05 13:05:00,
2013-04-05 09:10:00,44.8,41.7,30.04,NW,315,3.5,3.5,89,0.00,OVC,,0.00,WeatherDisplay:10.37,2013-04-05 13:10:00,
2013-04-05 09:16:00,44.8,42.0,30.03,NNE,22,8.1,8.1,90,0.00,OVC,,0.00,WeatherDisplay:10.37,2013-04-05 13:16:00,
2013-04-05 09:21:00,45.0,42.2,30.03,NNW,338,4.7,4.7,90,0.00,OVC,,0.00,WeatherDisplay:10.37,2013-04-05 13:21:00,
2013-04-05 09:26:00,45.1,42.4,30.04,North,0,5.8,5.8,90,0.00,OVC,,0.00,WeatherDisplay:10.37,2013-04-05 13:26:00,
2013-04-05 09:31:00,45.3,42.3,30.08,WSW,248,4.6,4.6,89,0.00,OVC,,0.00,WeatherDisplay:10.37,2013-04-05 13:31:00,
2013-04-05 09:36:00,45.5,42.7,30.08,NNW,338,2.3,2.3,90,0.00,OVC,,0.00,WeatherDisplay:10.37,2013-04-05 13:36:00,
2013-04-05 09:41:00,45.9,42.8,30.07,NNW,338,3.5,3.5,89,0.00,OVC,,0.00,WeatherDisplay:10.37,2013-04-05 13:41:00,
2013-04-05 09:46:00,46.0,43.0,30.07,NNW,338,2.3,2.3,89,0.00,OVC,,0.00,WeatherDisplay:10.37,2013-04-05 13:46:00,
2013-04-05 09:52:00,46.4,43.3,30.07,NNW,338,2.4,2.4,89,0.00,OVC,,0.00,WeatherDisplay:10.37,2013-04-05 13:52:00,
2013-04-05 09:57:00,46.8,43.4,30.07,West,270,3.6,3.6,88,0.00,OVC,,0.00,WeatherDisplay:10.37,2013-04-05 13:57:00,
2013-04-05 10:02:00,46.9,43.6,30.05,NNE,22,5.8,5.8,88,0.00,OVC,,0.00,WeatherDisplay:10.37,2013-04-05 14:02:00,
2013-04-05 10:07:00,46.9,43.6,30.05,North,0,4.6,4.6,88,0.00,OVC,,0.00,WeatherDisplay:10.37,2013-04-05 14:07:00,
2013-04-05 10:12:00,47.3,43.9,30.04,North,0,6.9,6.9,88,0.00,OVC,,0.00,WeatherDisplay:10.37,2013-04-05 14:12:00,
2013-04-05 10:17:00,47.3,43.9,30.05,North,0,5.8,5.8,88,0.00,OVC,,0.00,WeatherDisplay:10.37,2013-04-05 14:17:00,
2013-04-05 10:22:00,47.7,44.3,30.05,NW,315,5.8,5.8,88,0.00,OVC,,0.00,WeatherDisplay:10.37,2013-04-05 14:22:00,
2013-04-05 10:27:00,48.0,44.6,30.05,North,0,2.3,2.3,88,0.00,OVC,,0.00,WeatherDisplay:10.37,2013-04-05 14:27:00,
2013-04-05 10:33:00,48.4,44.7,30.06,NNW,338,4.6,4.6,87,0.00,OVC,,0.00,WeatherDisplay:10.37,2013-04-05 14:33:00,
2013-04-05 10:38:00,48.6,44.9,30.06,NNW,338,4.6,4.6,87,0.00,OVC,,0.00,WeatherDisplay:10.37,2013-04-05 14:38:00,
2013-04-05 10:43:00,48.6,44.6,30.05,North,0,4.6,4.6,86,0.00,OVC,,0.00,WeatherDisplay:10.37,2013-04-05 14:43:00,
2013-04-05 10:48:00,48.9,44.9,30.05,North,0,5.8,5.9,86,0.00,OVC,,0.00,WeatherDisplay:10.37,2013-04-05 14:48:00,
2013-04-05 10:54:00,49.1,44.8,30.06,NNE,22,8.1,8.1,85,0.00,OVC,,0.00,WeatherDisplay:10.37,2013-04-05 14:54:00,
2013-04-05 10:59:00,49.1,44.8,30.06,WNW,292,4.6,4.6,85,0.00,OVC,,0.00,WeatherDisplay:10.37,2013-04-05 14:59:00,
2013-04-05 11:04:00,49.3,45.0,30.07,NNW,338,4.5,4.5,85,0.00,OVC,,0.00,WeatherDisplay:10.37,2013-04-05 15:04:00,
2013-04-05 11:10:00,49.3,45.0,30.08,NNW,338,4.6,4.6,85,0.00,OVC,,0.00,WeatherDisplay:10.37,2013-04-05 15:10:00,
2013-04-05 11:15:00,49.5,45.1,30.07,NE,45,3.5,3.5,85,0.00,OVC,,0.00,WeatherDisplay:10.37,2013-04-05 15:15:00,
2013-04-05 11:20:00,49.6,45.6,30.09,NNW,338,3.5,3.5,86,0.00,OVC,,0.00,WeatherDisplay:10.37,2013-04-05 15:20:00,
2013-04-05 11:25:00,49.8,45.8,30.09,NNE,22,2.3,2.3,86,0.00,OVC,,0.00,WeatherDisplay:10.37,2013-04-05 15:25:00,
2013-04-05 11:30:00,50.0,46.0,30.09,NE,45,1.6,1.6,86,0.00,OVC,,0.00,WeatherDisplay:10.37,2013-04-05 15:30:00,
2013-04-05 11:35:00,50.4,46.3,30.08,NE,47,1.0,5.0,86,0.00,OVC,OVC,0.00,WeatherDisplay:10.37,2013-04-05 15:35:00,
2013-04-05 11:40:00,50.7,46.4,30.09,NNE,22,2.9,2.9,85,0.00,OVC,,0.00,WeatherDisplay:10.37,2013-04-05 15:40:00,
2013-04-05 11:45:00,50.9,46.2,30.08,North,5,1.0,3.0,84,0.00,OVC,OVC,0.00,WeatherDisplay:10.37,2013-04-05 15:45:00,
2013-04-05 11:50:00,51.1,46.4,30.08,NNE,22,4.6,4.6,84,0.00,OVC,,0.00,WeatherDisplay:10.37,2013-04-05 15:50:00,
2013-04-05 11:55:00,51.3,46.6,30.08,NNW,338,2.6,2.6,84,0.00,OVC,,0.00,WeatherDisplay:10.37,2013-04-05 15:55:00,
2013-04-05 12:00:00,51.4,46.8,30.08,NNW,338,4.6,4.6,84,0.00,OVC,,0.00,WeatherDisplay:10.37,2013-04-05 16:00:00,
2013-04-05 12:05:00,51.4,46.4,30.08,NNW,338,5.8,5.8,83,0.00,OVC,,0.00,WeatherDisplay:10.37,2013-04-05 16:05:00,
2013-04-05 12:10:00,51.4,46.4,30.08,NNW,338,4.7,4.7,83,0.00,OVC,,0.00,WeatherDisplay:10.37,2013-04-05 16:10:00,
2013-04-05 12:15:00,51.4,46.4,30.09,NW,315,2.3,2.3,83,0.00,OVC,,0.00,WeatherDisplay:10.37,2013-04-05 16:15:00,
2013-04-05 12:20:00,51.6,46.6,30.09,NNW,338,4.6,4.6,83,0.00,OVC,,0.00,WeatherDisplay:10.37,2013-04-05 16:20:00,
2013-04-05 12:25:00,52.0,46.7,30.09,NNW,338,4.6,4.6,82,0.00,OVC,,0.00,WeatherDisplay:10.37,2013-04-05 16:25:00,
2013-04-05 12:30:00,52.2,46.8,30.09,NNW,338,5.8,5.8,82,0.00,OVC,,0.00,WeatherDisplay:10.37,2013-04-05 16:30:00,
2013-04-05 12:35:00,52.2,46.8,30.09,NE,45,6.0,6.0,82,0.00,OVC,,0.00,WeatherDisplay:10.37,2013-04-05 16:35:00,
2013-04-05 12:40:00,52.3,47.0,30.08,NNE,22,5.8,5.8,82,0.00,OVC,,0.00,WeatherDisplay:10.37,2013-04-05 16:40:00,
2013-04-05 12:45:00,52.5,46.9,30.09,North,0,6.0,6.0,81,0.00,OVC,,0.00,WeatherDisplay:10.37,2013-04-05 16:45:00,
2013-04-05 12:50:00,52.7,47.0,30.09,NNW,338,4.6,4.6,81,0.00,OVC,,0.00,WeatherDisplay:10.37,2013-04-05 16:50:00,
2013-04-05 12:56:00,52.9,47.2,30.08,NW,315,8.1,8.1,81,0.00,OVC,,0.00,WeatherDisplay:10.37,2013-04-05 16:56:00,
2013-04-05 13:01:00,53.1,47.1,30.09,NE,45,5.8,5.8,80,0.00,OVC,,0.00,WeatherDisplay:10.37,2013-04-05 17:01:00,
2013-04-05 13:06:00,53.1,47.1,30.09,NNW,338,4.6,4.6,80,0.00,OVC,,0.00,WeatherDisplay:10.37,2013-04-05 17:06:00,
2013-04-05 13:11:00,53.1,47.1,30.09,NW,315,2.4,2.4,80,0.00,OVC,,0.00,WeatherDisplay:10.37,2013-04-05 17:11:00,
2013-04-05 13:16:00,52.9,46.9,30.09,North,0,8.1,8.1,80,0.00,OVC,,0.00,WeatherDisplay:10.37,2013-04-05 17:16:00,
2013-04-05 13:21:00,52.7,46.7,30.07,NW,315,4.9,4.9,80,0.00,OVC,,0.00,WeatherDisplay:10.37,2013-04-05 17:21:00,
2013-04-05 13:26:00,52.5,46.5,30.08,NNW,338,6.9,6.9,80,0.00,OVC,,0.00,WeatherDisplay:10.37,2013-04-05 17:26:00,
2013-04-05 13:32:00,52.5,46.5,30.07,NNE,22,8.1,8.1,80,0.00,OVC,,0.00,WeatherDisplay:10.37,2013-04-05 17:32:00,
2013-04-05 13:37:00,52.3,46.4,30.06,North,0,7.1,7.1,80,0.00,OVC,,0.00,WeatherDisplay:10.37,2013-04-05 17:37:00,
2013-04-05 13:42:00,52.3,46.4,30.06,NW,315,5.8,5.8,80,0.00,OVC,,0.00,WeatherDisplay:10.37,2013-04-05 17:42:00,
2013-04-05 13:47:00,52.3,46.4,30.07,North,0,5.8,5.8,80,0.00,OVC,,0.00,WeatherDisplay:10.37,2013-04-05 17:47:00,
2013-04-05 13:52:00,52.3,46.4,30.06,NNW,338,4.6,4.6,80,0.00,OVC,,0.00,WeatherDisplay:10.37,2013-04-05 17:52:00,
2013-04-05 13:57:00,52.5,46.9,30.06,NNE,22,3.6,3.6,81,0.00,OVC,,0.00,WeatherDisplay:10.37,2013-04-05 17:57:00,
2013-04-05 14:02:00,52.7,46.7,30.06,NNW,338,5.8,5.8,80,0.00,OVC,,0.00,WeatherDisplay:10.37,2013-04-05 18:02:00,
2013-04-05 14:07:00,52.9,46.9,30.06,NNE,22,6.7,6.7,80,0.00,OVC,,0.00,WeatherDisplay:10.37,2013-04-05 18:07:00,
2013-04-05 14:12:00,52.9,46.9,30.05,NE,45,5.8,5.8,80,0.00,OVC,,0.00,WeatherDisplay:10.37,2013-04-05 18:12:00,
2013-04-05 14:17:00,52.9,46.9,30.06,North,0,5.8,5.8,80,0.00,OVC,,0.00,WeatherDisplay:10.37,2013-04-05 18:17:00,
2013-04-05 14:22:00,52.9,46.9,30.05,NNE,22,8.1,8.1,80,0.00,OVC,,0.00,WeatherDisplay:10.37,2013-04-05 18:22:00,
2013-04-05 14:27:00,52.9,46.9,30.05,North,0,4.6,7.4,80,0.00,OVC,,0.00,WeatherDisplay:10.37,2013-04-05 18:27:00,
2013-04-05 14:32:00,52.9,46.9,30.05,NNE,22,8.1,8.1,80,0.00,OVC,,0.00,WeatherDisplay:10.37,2013-04-05 18:32:00,
2013-04-05 14:37:00,53.2,46.9,30.05,North,0,9.2,9.2,79,0.00,OVC,,0.00,WeatherDisplay:10.37,2013-04-05 18:37:00,
2013-04-05 14:42:00,53.6,47.2,30.05,NNE,22,12.8,12.8,79,0.00,OVC,,0.00,WeatherDisplay:10.37,2013-04-05 18:42:00,
2013-04-05 14:48:00,54.1,47.4,30.05,ESE,112,6.2,6.2,78,0.00,OVC,,0.00,WeatherDisplay:10.37,2013-04-05 18:48:00,
2013-04-05 14:53:00,54.1,46.7,30.05,NW,315,6.9,6.9,76,0.00,OVC,,0.00,WeatherDisplay:10.37,2013-04-05 18:53:00,
2013-04-05 14:58:00,54.3,46.9,30.05,North,0,9.2,9.2,76,0.00,OVC,,0.00,WeatherDisplay:10.37,2013-04-05 18:58:00,
2013-04-05 15:03:00,54.3,46.9,30.05,NNE,22,7.6,7.6,76,0.00,OVC,,0.00,WeatherDisplay:10.37,2013-04-05 19:03:00,
2013-04-05 15:08:00,54.7,47.6,30.05,NE,45,5.8,5.8,77,0.00,OVC,,0.00,WeatherDisplay:10.37,2013-04-05 19:08:00,
2013-04-05 15:13:00,54.9,47.4,30.04,NNE,22,9.4,9.4,76,0.00,OVC,,0.00,WeatherDisplay:10.37,2013-04-05 19:13:00,
2013-04-05 15:18:00,55.0,47.6,30.04,NW,315,8.1,8.1,76,0.00,OVC,,0.00,WeatherDisplay:10.37,2013-04-05 19:18:00,
2013-04-05 15:23:00,54.9,47.4,30.05,NNE,22,6.9,6.9,76,0.00,OVC,,0.00,WeatherDisplay:10.37,2013-04-05 19:23:00,
2013-04-05 15:28:00,54.9,47.4,30.05,ESE,112,3.5,3.5,76,0.00,OVC,,0.00,WeatherDisplay:10.37,2013-04-05 19:28:00,
2013-04-05 15:33:00,55.0,47.3,30.05,North,0,8.1,8.1,75,0.00,OVC,,0.00,WeatherDisplay:10.37,2013-04-05 19:33:00,
2013-04-05 15:38:00,55.4,47.6,30.05,NNW,338,6.9,6.9,75,0.00,OVC,,0.00,WeatherDisplay:10.37,2013-04-05 19:38:00,
2013-04-05 15:43:00,55.6,47.4,30.05,North,0,9.9,9.9,74,0.00,OVC,,0.00,WeatherDisplay:10.37,2013-04-05 19:43:00,
2013-04-05 15:48:00,55.8,47.6,30.05,NNE,22,5.8,5.8,74,0.00,OVC,,0.00,WeatherDisplay:10.37,2013-04-05 19:48:00,
2013-04-05 15:53:00,56.1,47.2,30.04,North,0,5.8,5.8,72,0.00,OVC,,0.00,WeatherDisplay:10.37,2013-04-05 19:53:00,
2013-04-05 15:58:00,56.3,47.8,30.04,NE,45,6.7,6.7,73,0.00,OVC,,0.00,WeatherDisplay:10.37,2013-04-05 19:58:00,
2013-04-05 16:03:00,56.5,47.9,30.03,NNE,22,4.6,4.6,73,0.00,OVC,,0.00,WeatherDisplay:10.37,2013-04-05 20:03:00,
2013-04-05 16:08:00,56.7,47.4,30.04,North,0,8.7,8.7,71,0.00,OVC,,0.00,WeatherDisplay:10.37,2013-04-05 20:08:00,
2013-04-05 16:13:00,56.7,47.7,30.04,NE,45,4.6,4.6,72,0.00,OVC,,0.00,WeatherDisplay:10.37,2013-04-05 20:13:00,
2013-04-05 16:18:00,56.8,47.9,30.04,NNW,338,5.8,5.8,72,0.00,OVC,,0.00,WeatherDisplay:10.37,2013-04-05 20:18:00,
2013-04-05 16:23:00,57.0,47.7,30.04,NE,45,4.6,4.6,71,0.00,OVC,,0.00,WeatherDisplay:10.37,2013-04-05 20:23:00,
2013-04-05 16:28:00,57.2,47.9,30.04,NNE,22,4.6,4.6,71,0.00,OVC,,0.00,WeatherDisplay:10.37,2013-04-05 20:28:00,
2013-04-05 16:33:00,57.4,47.3,30.05,North,0,3.5,3.5,69,0.00,OVC,,0.00,WeatherDisplay:10.37,2013-04-05 20:33:00,
2013-04-05 16:38:00,57.6,47.5,30.05,NE,45,6.9,6.9,69,0.00,OVC,,0.00,WeatherDisplay:10.37,2013-04-05 20:38:00,
2013-04-05 16:43:00,57.6,47.5,30.04,North,0,4.6,4.6,69,0.00,OVC,,0.00,WeatherDisplay:10.37,2013-04-05 20:43:00,
2013-04-05 16:48:00,57.6,47.5,30.04,North,0,6.9,6.9,69,0.00,OVC,,0.00,WeatherDisplay:10.37,2013-04-05 20:48:00,
2013-04-05 16:53:00,57.4,47.7,30.05,NNE,22,3.5,3.5,70,0.00,OVC,,0.00,WeatherDisplay:10.37,2013-04-05 20:53:00,
2013-04-05 16:58:00,57.6,47.5,30.05,NE,45,6.9,6.9,69,0.00,OVC,,0.00,WeatherDisplay:10.37,2013-04-05 20:58:00,
2013-04-05 17:03:00,57.6,47.5,30.05,North,0,5.8,5.8,69,0.00,SCT,,0.00,WeatherDisplay:10.37,2013-04-05 21:03:00,
2013-04-05 17:08:00,57.6,47.5,30.05,NE,45,5.8,5.8,69,0.00,SCT,,0.00,WeatherDisplay:10.37,2013-04-05 21:08:00,
2013-04-05 17:13:00,57.7,47.6,30.05,NNW,338,4.9,4.9,69,0.00,SCT,,0.00,WeatherDisplay:10.37,2013-04-05 21:13:00,
2013-04-05 17:19:00,58.1,48.0,30.05,ENE,68,5.8,5.8,69,0.00,SCT,,0.00,WeatherDisplay:10.37,2013-04-05 21:19:00,
2013-04-05 17:24:00,58.5,47.9,30.05,NNW,338,4.6,4.6,68,0.00,SCT,,0.00,WeatherDisplay:10.37,2013-04-05 21:24:00,
2013-04-05 17:29:00,58.8,48.3,30.05,ENE,68,3.5,3.5,68,0.00,SCT,,0.00,WeatherDisplay:10.37,2013-04-05 21:29:00,
2013-04-05 17:34:00,58.6,48.1,30.05,ENE,68,3.5,3.5,68,0.00,SCT,,0.00,WeatherDisplay:10.37,2013-04-05 21:34:00,
2013-04-05 17:39:00,58.6,47.7,30.05,NNE,22,5.8,5.8,67,0.00,SCT,,0.00,WeatherDisplay:10.37,2013-04-05 21:39:00,
2013-04-05 17:45:00,58.3,47.8,30.05,North,0,3.5,3.5,68,0.00,SCT,,0.00,WeatherDisplay:10.37,2013-04-05 21:45:00,
2013-04-05 17:50:00,58.2,47.7,30.05,North,11,3.0,5.0,68,0.00,SCT,SCT,0.00,WeatherDisplay:10.37,2013-04-05 21:50:00,
2013-04-05 17:55:00,58.3,48.2,30.06,North,9,2.0,6.0,69,0.00,BKN,BKN,0.00,WeatherDisplay:10.37,2013-04-05 21:55:00,
2013-04-05 18:00:00,58.1,47.6,30.05,NNE,22,6.7,6.7,68,0.00,BKN,,0.00,WeatherDisplay:10.37,2013-04-05 22:00:00,
2013-04-05 18:05:00,58.1,47.6,30.05,NE,45,3.6,3.6,68,0.00,BKN,,0.00,WeatherDisplay:10.37,2013-04-05 22:05:00,
2013-04-05 18:10:00,57.9,47.8,30.05,NNE,22,3.5,3.5,69,0.00,BKN,,0.00,WeatherDisplay:10.37,2013-04-05 22:10:00,
2013-04-05 18:15:00,57.9,47.8,30.05,North,0,2.4,2.4,69,0.00,BKN,,0.00,WeatherDisplay:10.37,2013-04-05 22:15:00,
2013-04-05 18:20:00,57.7,47.6,30.06,NW,315,2.3,2.3,69,0.00,BKN,,0.00,WeatherDisplay:10.37,2013-04-05 22:20:00,
2013-04-05 18:25:00,57.9,47.8,30.06,NNW,338,4.6,4.6,69,0.00,BKN,,0.00,WeatherDisplay:10.37,2013-04-05 22:25:00,
2013-04-05 18:30:00,58.1,48.0,30.06,North,0,2.3,2.3,69,0.00,BKN,,0.00,WeatherDisplay:10.37,2013-04-05 22:30:00,
2013-04-05 18:35:00,58.3,48.2,30.06,NE,45,2.4,2.4,69,0.00,BKN,,0.00,WeatherDisplay:10.37,2013-04-05 22:35:00,
2013-04-05 18:40:00,58.3,47.8,30.07,NE,45,5.8,5.8,68,0.00,BKN,,0.00,WeatherDisplay:10.37,2013-04-05 22:40:00,
2013-04-05 18:45:00,58.1,47.6,30.07,NNE,22,4.6,4.6,68,0.00,BKN,,0.00,WeatherDisplay:10.37,2013-04-05 22:45:00,
2013-04-05 18:50:00,57.9,47.4,30.07,NNE,22,4.6,4.6,68,0.00,BKN,,0.00,WeatherDisplay:10.37,2013-04-05 22:50:00,
2013-04-05 18:55:00,57.7,47.2,30.07,North,0,3.5,3.5,68,0.00,BKN,,0.00,WeatherDisplay:10.37,2013-04-05 22:55:00,
2013-04-05 19:00:00,57.6,47.5,30.07,NNE,22,2.3,2.3,69,0.00,BKN,,0.00,WeatherDisplay:10.37,2013-04-05 23:00:00,
2013-04-05 19:05:00,57.4,47.3,30.07,North,0,2.4,2.4,69,0.00,SCT,,0.00,WeatherDisplay:10.37,2013-04-05 23:05:00,
2013-04-05 19:10:00,57.2,47.1,30.08,North,0,1.1,0.0,69,0.00,SCT,,0.00,WeatherDisplay:10.37,2013-04-05 23:10:00,
2013-04-05 19:16:00,57.2,47.1,30.08,NNE,22,1.1,1.1,69,0.00,SCT,,0.00,WeatherDisplay:10.37,2013-04-05 23:16:00,
2013-04-05 19:21:00,57.0,47.3,30.08,North,0,3.5,3.5,70,0.00,SCT,,0.00,WeatherDisplay:10.37,2013-04-05 23:21:00,
2013-04-05 19:26:00,56.8,47.2,30.08,North,0,2.3,2.3,70,0.00,SCT,,0.00,WeatherDisplay:10.37,2013-04-05 23:26:00,
2013-04-05 19:31:00,56.7,47.0,30.09,North,0,1.1,1.1,70,0.00,SCT,,0.00,WeatherDisplay:10.37,2013-04-05 23:31:00,
2013-04-05 19:36:00,56.5,46.8,30.09,North,0,0.0,0.9,70,0.00,SCT,,0.00,WeatherDisplay:10.37,2013-04-05 23:36:00,
2013-04-05 19:41:00,56.5,47.2,30.10,NNE,22,1.1,1.1,71,0.00,SCT,,0.00,WeatherDisplay:10.37,2013-04-05 23:41:00,
2013-04-05 19:46:00,56.1,46.8,30.10,North,0,1.1,0.0,71,0.00,SCT,,0.00,WeatherDisplay:10.37,2013-04-05 23:46:00,
2013-04-05 19:51:00,55.9,46.7,30.10,NE,45,0.7,0.7,71,0.00,SCT,,0.00,WeatherDisplay:10.37,2013-04-05 23:51:00,
2013-04-05 19:56:00,55.8,46.9,30.10,NE,45,0.5,0.5,72,0.00,SCT,,0.00,WeatherDisplay:10.37,2013-04-05 23:56:00,
2013-04-05 20:01:00,55.6,46.7,30.11,SE,135,0.0,0.0,72,0.00,SCT,,0.00,WeatherDisplay:10.37,2013-04-06 00:01:00,
2013-04-05 20:06:00,55.2,46.7,30.11,ESE,112,1.1,1.1,73,0.00,CLR,,0.00,WeatherDisplay:10.37,2013-04-06 00:06:00,
2013-04-05 20:11:00,54.9,46.4,30.11,SSE,158,1.1,0.0,73,0.00,CLR,,0.00,WeatherDisplay:10.37,2013-04-06 00:11:00,
2013-04-05 20:17:00,54.5,46.0,30.11,SSE,158,0.0,0.0,73,0.00,CLR,,0.00,WeatherDisplay:10.37,2013-04-06 00:17:00,
2013-04-05 20:22:00,54.3,46.2,30.11,SSE,158,0.5,0.5,74,0.00,CLR,,0.00,WeatherDisplay:10.37,2013-04-06 00:22:00,
2013-04-05 20:27:00,53.8,45.7,30.11,SSE,158,0.0,0.0,74,0.00,CLR,,0.00,WeatherDisplay:10.37,2013-04-06 00:27:00,
2013-04-05 20:32:00,53.6,45.9,30.12,SSE,158,0.0,0.0,75,0.00,CLR,,0.00,WeatherDisplay:10.37,2013-04-06 00:32:00,
2013-04-05 20:37:00,53.2,45.2,30.12,SSE,158,0.0,0.0,74,0.00,CLR,,0.00,WeatherDisplay:10.37,2013-04-06 00:37:00,
2013-04-05 20:42:00,52.9,45.2,30.12,SSE,158,0.0,0.0,75,0.00,CLR,,0.00,WeatherDisplay:10.37,2013-04-06 00:42:00,
2013-04-05 20:47:00,52.7,45.0,30.13,SSE,158,0.0,0.0,75,0.00,CLR,,0.00,WeatherDisplay:10.37,2013-04-06 00:47:00,
2013-04-05 20:52:00,52.5,44.8,30.13,SSE,158,0.0,0.0,75,0.00,CLR,,0.00,WeatherDisplay:10.37,2013-04-06 00:52:00,
2013-04-05 20:57:00,52.2,44.5,30.13,SSE,158,0.0,0.0,75,0.00,CLR,,0.00,WeatherDisplay:10.37,2013-04-06 00:57:00,
2013-04-05 21:02:00,52.2,44.8,30.13,SSE,158,0.0,0.0,76,0.00,CLR,,0.00,WeatherDisplay:10.37,2013-04-06 01:02:00,
2013-04-05 21:07:00,51.8,44.5,30.13,SSE,158,0.0,0.0,76,0.00,CLR,,0.00,WeatherDisplay:10.37,2013-04-06 01:07:00,
2013-04-05 21:12:00,51.6,44.3,30.14,SSE,158,0.0,0.0,76,0.00,CLR,,0.00,WeatherDisplay:10.37,2013-04-06 01:12:00,
2013-04-05 21:17:00,51.4,44.1,30.14,SSE,158,0.0,0.0,76,0.00,CLR,,0.00,WeatherDisplay:10.37,2013-04-06 01:17:00,
2013-04-05 21:22:00,51.1,44.1,30.14,SSE,158,0.0,0.0,77,0.00,CLR,,0.00,WeatherDisplay:10.37,2013-04-06 01:22:00,
2013-04-05 21:28:00,50.9,43.9,30.15,SSE,158,0.0,0.0,77,0.00,CLR,,0.00,WeatherDisplay:10.37,2013-04-06 01:28:00,
2013-04-05 21:33:00,50.7,43.8,30.15,SSE,158,1.1,0.0,77,0.00,CLR,,0.00,WeatherDisplay:10.37,2013-04-06 01:33:00,
2013-04-05 21:38:00,50.4,43.8,30.15,SSE,158,0.0,0.0,78,0.00,CLR,,0.00,WeatherDisplay:10.37,2013-04-06 01:38:00,
2013-04-05 21:43:00,50.2,43.6,30.15,SSE,158,0.0,0.0,78,0.00,CLR,,0.00,WeatherDisplay:10.37,2013-04-06 01:43:00,
2013-04-05 21:48:00,50.0,43.4,30.15,SSE,158,0.0,0.0,78,0.00,CLR,,0.00,WeatherDisplay:10.37,2013-04-06 01:48:00,
2013-04-05 21:53:00,50.0,43.4,30.16,SSE,158,0.0,0.0,78,0.00,CLR,,0.00,WeatherDisplay:10.37,2013-04-06 01:53:00,
2013-04-05 21:58:00,49.8,43.2,30.16,SSE,158,0.0,0.0,78,0.00,CLR,,0.00,WeatherDisplay:10.37,2013-04-06 01:58:00,
2013-04-05 22:03:00,49.6,43.1,30.16,SSE,158,0.0,0.0,78,0.00,CLR,,0.00,WeatherDisplay:10.37,2013-04-06 02:03:00,
2013-04-05 22:08:00,49.5,42.9,30.16,SSE,158,0.0,0.0,78,0.00,CLR,,0.00,WeatherDisplay:10.37,2013-04-06 02:08:00,
2013-04-05 22:13:00,49.3,43.0,30.16,SSE,158,0.0,0.0,79,0.00,CLR,,0.00,WeatherDisplay:10.37,2013-04-06 02:13:00,
2013-04-05 22:18:00,49.1,42.9,30.16,SSE,158,0.0,0.0,79,0.00,CLR,,0.00,WeatherDisplay:10.37,2013-04-06 02:18:00,
2013-04-05 22:23:00,48.9,42.7,30.16,SSE,158,0.0,0.0,79,0.00,CLR,,0.00,WeatherDisplay:10.37,2013-04-06 02:23:00,
2013-04-05 22:28:00,48.7,42.5,30.16,SSE,158,0.0,0.0,79,0.00,CLR,,0.00,WeatherDisplay:10.37,2013-04-06 02:28:00,
2013-04-05 22:33:00,48.6,42.3,30.16,SSE,158,0.0,0.0,79,0.00,CLR,,0.00,WeatherDisplay:10.37,2013-04-06 02:33:00,
2013-04-05 22:38:00,48.6,42.7,30.16,SSE,158,0.0,0.0,80,0.00,CLR,,0.00,WeatherDisplay:10.37,2013-04-06 02:38:00,
2013-04-05 22:43:00,48.4,42.5,30.16,SSE,158,0.0,0.0,80,0.00,CLR,,0.00,WeatherDisplay:10.37,2013-04-06 02:43:00,
2013-04-05 22:48:00,48.2,42.3,30.16,SSE,158,0.0,0.0,80,0.00,CLR,,0.00,WeatherDisplay:10.37,2013-04-06 02:48:00,
2013-04-05 22:53:00,48.0,42.1,30.16,SSE,158,0.0,0.0,80,0.00,CLR,,0.00,WeatherDisplay:10.37,2013-04-06 02:53:00,
2013-04-05 22:58:00,47.8,42.0,30.16,SSE,158,0.0,0.0,80,0.00,CLR,,0.00,WeatherDisplay:10.37,2013-04-06 02:58:00,
2013-04-05 23:03:00,47.8,42.0,30.16,SSE,158,0.0,0.0,80,0.00,CLR,,0.00,WeatherDisplay:10.37,2013-04-06 03:03:00,
2013-04-05 23:08:00,47.7,41.8,30.16,SSE,158,0.0,0.0,80,0.00,CLR,,0.00,WeatherDisplay:10.37,2013-04-06 03:08:00,
2013-04-05 23:13:00,47.5,41.6,30.17,SSE,158,0.0,0.0,80,0.00,CLR,,0.00,WeatherDisplay:10.37,2013-04-06 03:13:00,
2013-04-05 23:18:00,47.3,41.4,30.17,SSE,158,0.0,0.0,80,0.00,CLR,,0.00,WeatherDisplay:10.37,2013-04-06 03:18:00,
2013-04-05 23:23:00,47.1,41.3,30.17,SSE,158,0.0,0.0,80,0.00,CLR,,0.00,WeatherDisplay:10.37,2013-04-06 03:23:00,
2013-04-05 23:28:00,47.1,41.3,30.17,SSE,158,0.0,0.0,80,0.00,CLR,,0.00,WeatherDisplay:10.37,2013-04-06 03:28:00,
2013-04-05 23:33:00,46.9,41.1,30.17,SSE,158,0.0,0.0,80,0.00,CLR,,0.00,WeatherDisplay:10.37,2013-04-06 03:33:00,
2013-04-05 23:38:00,46.9,40.8,30.17,SSE,158,0.0,0.0,79,0.00,CLR,,0.00,WeatherDisplay:10.37,2013-04-06 03:38:00,
2013-04-05 23:43:00,46.8,40.9,30.17,SSE,158,0.0,0.0,80,0.00,CLR,,0.00,WeatherDisplay:10.37,2013-04-06 03:43:00,
2013-04-05 23:48:00,46.8,40.9,30.18,SSE,158,0.0,0.0,80,0.00,CLR,,0.00,WeatherDisplay:10.37,2013-04-06 03:48:00,
2013-04-05 23:53:00,46.6,40.7,30.18,SSE,158,0.0,0.0,80,0.00,CLR,,0.00,WeatherDisplay:10.37,2013-04-06 03:53:00,
2013-04-05 23:59:00,46.4,40.6,30.18,SSE,158,0.0,0.0,80,0.00,CLR,,0.00,WeatherDisplay:10.37,2013-04-06 03:59:00,